Satellite-Ground Cal/Val Region Overpasses Predictions

Prediction of Satellite NPP Overpassing Cal/Val Region: PacNW

Region Location: (Latitude: 10.00, Longitude: 139.50) to (Latitude: 22.70, Longitude: 165.60).

Table of predicted overpasses for the next 14.0 days since TLE Epoch: 11/12/2022
Interval Starting Time Starting Location Ending Time Ending Location
1 11/12/2022 03:18:15 ( 10.03, 150.35) 11/12/2022 03:21:50 ( 22.65, 147.34)
2 11/12/2022 15:50:07 ( 22.67, 147.60) 11/12/2022 15:53:42 ( 10.05, 144.59)
3 11/13/2022 02:59:12 ( 10.03, 155.11) 11/13/2022 03:02:47 ( 22.65, 152.11)
4 11/13/2022 15:31:05 ( 22.66, 152.36) 11/13/2022 15:34:40 ( 10.04, 149.35)
5 11/14/2022 02:40:10 ( 10.04, 159.87) 11/14/2022 02:43:45 ( 22.66, 156.87)
6 11/14/2022 15:12:02 ( 22.66, 157.12) 11/14/2022 15:15:37 ( 10.04, 154.11)
7 11/15/2022 02:21:07 ( 10.05, 164.63) 11/15/2022 02:24:42 ( 22.67, 161.63)
8 11/15/2022 14:53:00 ( 22.65, 161.88) 11/15/2022 14:56:35 ( 10.03, 158.87)
9 11/16/2022 03:43:34 ( 10.00, 144.03) 11/16/2022 03:47:10 ( 22.68, 141.01)
10 11/16/2022 14:35:11 ( 18.36, 165.59) 11/16/2022 14:37:33 ( 10.02, 163.63)
11 11/16/2022 16:15:27 ( 22.69, 141.28) 11/16/2022 16:17:31 ( 15.42, 139.51)
12 11/17/2022 03:24:31 ( 10.01, 148.79) 11/17/2022 03:28:07 ( 22.69, 145.77)
13 11/17/2022 15:56:24 ( 22.68, 146.04) 11/17/2022 16:00:00 ( 10.00, 143.02)
14 11/18/2022 03:05:29 ( 10.03, 153.55) 11/18/2022 03:09:04 ( 22.65, 150.55)
15 11/18/2022 15:37:22 ( 22.67, 150.80) 11/18/2022 15:40:57 ( 10.05, 147.79)
16 11/19/2022 02:46:26 ( 10.04, 158.31) 11/19/2022 02:50:01 ( 22.66, 155.31)
17 11/19/2022 15:18:19 ( 22.66, 155.56) 11/19/2022 15:21:54 ( 10.04, 152.55)
18 11/20/2022 02:27:24 ( 10.05, 163.07) 11/20/2022 02:30:59 ( 22.67, 160.07)
19 11/20/2022 14:59:17 ( 22.64, 160.32) 11/20/2022 15:02:52 ( 10.02, 157.31)
20 11/21/2022 02:11:03 ( 19.58, 165.59) 11/21/2022 02:11:56 ( 22.69, 164.83)
21 11/21/2022 03:49:50 ( 10.01, 142.47) 11/21/2022 03:53:22 ( 22.46, 139.51)
22 11/21/2022 14:40:13 ( 22.69, 165.09) 11/21/2022 14:43:49 ( 10.01, 162.07)
23 11/21/2022 16:21:43 ( 22.68, 139.72) 11/21/2022 16:21:57 ( 21.86, 139.51)
24 11/22/2022 03:30:48 ( 10.03, 147.23) 11/22/2022 03:34:23 ( 22.65, 144.22)
25 11/22/2022 16:02:41 ( 22.66, 144.48) 11/22/2022 16:06:16 ( 10.04, 141.47)
26 11/23/2022 03:11:45 ( 10.05, 151.99) 11/23/2022 03:15:20 ( 22.67, 148.98)
27 11/23/2022 15:43:38 ( 22.65, 149.23) 11/23/2022 15:47:13 ( 10.03, 146.23)
28 11/24/2022 02:52:42 ( 10.01, 156.76) 11/24/2022 02:56:18 ( 22.69, 153.74)
29 11/24/2022 15:24:35 ( 22.69, 154.01) 11/24/2022 15:28:11 ( 10.01, 150.99)
30 11/25/2022 02:33:40 ( 10.02, 161.52) 11/25/2022 02:37:15 ( 22.65, 158.51)
